Location: Lombard
(41.8800°N, 88.0080°W)
Time: 01:29:14
(UTC-05:00)

Gurwin Techsat 1B - Pass Details

Date: 17 May 2022
Orbit: 811 x 814 km, 98.8° (Epoch: 27 June)

Event Time Altitude Azimuth Distance (km) Brightness Sun altitude
Rises 04:18:26 0° 4° (N) 3,346 12.5 -11.9°
Reaches altitude 10° 04:20:59 10° 355° (N) 2,409 11.6 -11.5°
Maximum altitude 04:25:39 33° 293° (WNW) 1,353 9.6 -10.9°
Enters shadow 04:29:40 13° 235° (SW) 2,172 10.2 -10.3°
